Location: Unspecified
(0.0000°N, 0.0000°E)
Time: 07:28:00
(UTC+00:00)

Vanguard 2 Rocket - Pass Details

Date: 04 October 2023
Orbit: 552 x 3312 km, 32.9° (Epoch: 06 December)

Event Time Altitude Azimuth Distance (km) Brightness Sun altitude
Rises 14:30:02 0° 316° (NW) 7,205 11.8 49.5°
Reaches altitude 10° 14:35:40 10° 324° (NW) 6,257 11.6 48.1°
Maximum altitude 14:53:23 37° 26° (NNE) 3,995 10.3 43.7°
Drops below altitude 10° 15:06:46 10° 88° (E) 4,837 10.2 40.4°
Sets 15:10:20 0° 96° (E) 5,489 10.4 39.5°
